Flight Track Log - Related Links

Times and Time Zones

All times are in EDT time to prevent confusion due to time zone crossing. See the SKW6492 flight status page for this flight to view local times or setup timezone preferences in your user account.

Time Position Orientation Groundspeed Altitude Reporting Facility
EDT Latitude Longitude Course Direction KTS MPH feet Rate Location/Type
Sat 10:54:01 PM 39.9500 -104.6833 348° North 226 260 7,700  Level Denver TRACON
Sat 10:55:01 PM 40.0333 -104.6667 North 291 335 9,100 1,650 Climbing Denver TRACON
Sat 10:56:00 PM 40.2952 -104.8102 347° North  Level FlightAware Approximate
Sat 10:56:01 PM 40.1167 -104.6667 360° North 305 351 11,000  Level Denver TRACON
Sat 10:57:00 PM 40.4067 -104.8466 346° North  Level FlightAware Approximate
Sat 10:57:14 PM 40.2222 -104.6781 355° North 314 361 13,400  Level Denver Center
Sat 10:58:00 PM 40.5180 -104.8837 348° North  Level FlightAware Approximate
Sat 10:58:15 PM 40.3100 -104.7050 347° North 323 372 15,200  Level Denver Center
Sat 10:59:00 PM 40.6302 -104.9158 348° North  Level FlightAware Approximate
Sat 10:59:16 PM 40.4014 -104.7319 347° North 334 384 16,800  Level Denver Center
Sat 11:00:16 PM 40.4950 -104.7617 346° North 345 397 18,100 1,240 Climbing Denver Center
Sat 11:01:17 PM 40.5883 -104.7897 347° North 345 397 19,300 1,279 Climbing Denver Center
Sat 11:02:18 PM 40.6922 -104.8231 346° North 359 413 20,700 1,230 Climbing Denver Center
Sat 11:03:19 PM 40.7872 -104.8500 348° North 350 403 21,800 893 Climbing Denver Center
Sat 11:04:19 PM 40.8872 -104.8964 341° North 374 430 22,500 992 Climbing Denver Center
Sat 11:05:20 PM 40.9864 -104.9461 339° North 381 438 23,800 1,180 Climbing Denver Center
Sat 11:06:21 PM 41.0942 -104.9994 340° North 385 443 24,900 934 Climbing Denver Center
Sat 11:07:22 PM 41.1897 -105.0542 337° Northwest 390 449 25,700 787 Climbing Denver Center
Sat 11:08:23 PM 41.2694 -105.1428 320° Northwest 390 449 26,500 793 Climbing Denver Center
Sat 11:09:23 PM 41.3636 -105.2475 320° Northwest 393 452 27,300 744 Climbing Denver Center
Sat 11:10:24 PM 41.4453 -105.3403 320° Northwest 399 459 28,000 689 Climbing Denver Center
Sat 11:11:25 PM 41.5286 -105.4317 321° Northwest 404 465 28,700 639 Climbing Denver Center
Sat 11:12:26 PM 41.6250 -105.5408 320° Northwest 406 467 29,300 496 Climbing Denver Center
Sat 11:13:38 PM 41.7067 -105.6353 319° Northwest 406 467 29,800 316 Climbing Denver Center
Sat 11:14:39 PM 41.8047 -105.7464 320° Northwest 411 473 30,000 98 Climbing Denver Center
Sat 11:15:40 PM 41.9078 -105.8642 320° Northwest 431 496 30,000  Level Denver Center
Sat 11:16:41 PM 41.9981 -105.9661 320° Northwest 440 506 30,000  Level Denver Center
Sat 11:17:41 PM 42.0897 -106.0711 320° Northwest 445 512 30,000  Level Denver Center
Sat 11:18:42 PM 42.1953 -106.1936 319° Northwest 448 516 30,000  Level Denver Center
Sat 11:19:43 PM 42.2894 -106.3019 320° Northwest 460 529 30,000  Level Denver Center
Sat 11:20:44 PM 42.3833 -106.4103 320° Northwest 462 532 30,000  Level Denver Center
Sat 11:21:44 PM 42.4928 -106.5389 319° Northwest 464 534 30,000  Level Denver Center
Sat 11:22:45 PM 42.5872 -106.6492 319° Northwest 468 539 30,000  Level Denver Center
Sat 11:23:46 PM 42.6789 -106.7589 319° Northwest 464 534 30,000  Level Denver Center
Sat 11:24:47 PM 42.7861 -106.8878 319° Northwest 460 529 30,000  Level Denver Center
Sat 11:25:47 PM 42.8789 -106.9958 320° Northwest 459 528 30,000  Level Denver Center
Sat 11:26:31 PM 42.9472 -107.0536 328° Northwest 457 526 30,000  Level Salt Lake Center
Sat 11:27:32 PM 43.0519 -107.1544 325° Northwest 459 528 30,000  Level Salt Lake Center
Sat 11:28:33 PM 43.1581 -107.2569 325° Northwest 464 534 30,000  Level Salt Lake Center
Sat 11:29:33 PM 43.2847 -107.3819 324° Northwest 467 537 30,000  Level Salt Lake Center
Sat 11:30:34 PM 43.3678 -107.4628 325° Northwest 461 531 30,000  Level Salt Lake Center
Sat 11:31:35 PM 43.4925 -107.5875 324° Northwest 462 532 30,000  Level Salt Lake Center
Sat 11:32:36 PM 43.5967 -107.6886 325° Northwest 459 528 30,000 -344 Level Salt Lake Center
Sat 11:33:37 PM 43.7025 -107.7911 325° Northwest 461 531 29,300 -1,869 Descending Salt Lake Center
Sat 11:34:38 PM 43.8072 -107.8969 324° Northwest 464 534 26,200 -2,926 Descending Salt Lake Center
Sat 11:35:38 PM 43.9081 -107.9978 324° Northwest 449 517 23,400 -1,736 Descending Salt Lake Center
Sat 11:36:39 PM 43.9994 -108.0872 325° Northwest 408 470 22,700 -639 Descending Salt Lake Center
Sat 11:37:40 PM 44.0722 -108.1567 326° Northwest 324 373 22,100 -885 Descending Salt Lake Center
Sat 11:38:41 PM 44.1378 -108.2256 323° Northwest 301 346 20,900 -1,574 Descending Salt Lake Center
Sat 11:39:42 PM 44.2008 -108.2931 323° Northwest 291 335 18,900 -2,033 Descending Salt Lake Center
Sat 11:40:42 PM 44.2244 -108.3933 288° West 274 315 16,800 -2,182 Descending Salt Lake Center
Sat 11:41:43 PM 44.2475 -108.4908 288° West 268 308 14,500 -1,770 Descending Salt Lake Center
Sat 11:42:44 PM 44.2717 -108.5939 288° West 266 306 13,200 -2,262 Descending Salt Lake Center
Sat 11:43:45 PM 44.2928 -108.6858 288° West 266 306 9,900 -2,066 Descending Salt Lake Center
Sat 11:44:46 PM 44.3161 -108.7794 289° West 262 302 9,000 -992 Descending Salt Lake Center
Sat 11:45:46 PM 44.3608 -108.8394 316° Northwest 239 275 7,900 -595 Descending Salt Lake Center
Sat 11:46:47 PM 44.4036 -108.8892 320° Northwest 218 251 7,800 -49 Descending Salt Lake Center
Sat 11:47:48 PM 44.4483 -108.9433 319° Northwest 196 226 7,800  Level Salt Lake Center
Sat 11:48:49 PM 44.4581 -109.0064 282° West 176 203 7,800 -645 Level Salt Lake Center
Sat 11:49:49 PM 44.4733 -109.0639 290° West 165 190 6,500 -1,140 Descending Salt Lake Center
Sat 11:50:50 PM 44.5067 -109.0544 11° North 170 196 5,500 -984 Descending Salt Lake Center

Login

Don't have an account? Register now (free) for customized features, flight alerts, and more!